| time (UTC) | temp F | wind direction | speed knots | gust knots | rain 1hr in | rain 24hr in | rain mn in | humidity % | barometer mb |
| 20260507083024 | 51 | 5 | 0.0 | 0.0 | 0.00 | 0.00 | 0.00 | 82 | 1015.7 |
| 20260507081535 | 51 | 5 | 0.0 | 0.0 | 0.00 | 0.00 | 0.00 | 82 | 1015.7 |
| 20260507080021 | 51 | 5 | 0.0 | 0.0 | 0.00 | 0.00 | 0.00 | 83 | 1015.5 |
| 20260507074536 | 51 | 5 | 0.0 | 0.0 | 0.00 | 0.00 | 0.00 | 83 | 1015.5 |
| 20260507073019 | 51 | 5 | 0.0 | 0.0 | 0.00 | 0.00 | 0.00 | 83 | 1015.4 |
| 20260507071518 | 51 | 5 | 0.0 | 0.0 | 0.00 | 0.00 | 0.00 | 82 | 1015.4 |
| 20260507070020 | 51 | 5 | 0.0 | 0.0 | 0.00 | 0.00 | 0.00 | 82 | 1015.2 |
| 20260507064516 | 51 | 5 | 0.0 | 0.0 | 0.00 | 0.00 | 0.00 | 82 | 1015.2 |
| 20260507063022 | 51 | 5 | 0.0 | 0.0 | 0.00 | 0.00 | 0.00 | 81 | 1015.3 |
| 20260507061512 | 52 | 5 | 0.0 | 0.0 | 0.00 | 0.00 | 0.00 | 80 | 1015.1 |
| 20260507060009 | 52 | 5 | 0.0 | 0.0 | 0.00 | 0.00 | 0.00 | 80 | 1014.7 |
| 20260507054512 | 52 | 5 | 0.0 | 0.0 | 0.00 | 0.00 | 0.00 | 79 | 1014.4 |
| 20260507053005 | 52 | 5 | 0.0 | 0.0 | 0.00 | 0.00 | 0.00 | 79 | 1014.2 |
| 20260507051503 | 53 | 5 | 0.0 | 0.0 | 0.00 | 0.00 | 0.00 | 78 | 1014.1 |
| 20260507050100 | 53 | 5 | 0.0 | 0.0 | 0.00 | 0.00 | 0.00 | 77 | 1013.9 |
| 20260507044602 | 54 | 5 | 0.0 | 0.0 | 0.00 | 0.00 | 0.00 | 76 | 1013.5 |
| 20260507043056 | 54 | 5 | 0.0 | 0.0 | 0.00 | 0.00 | 0.00 | 75 | 1013.3 |
| 20260507041601 | 55 | 5 | 0.0 | 0.0 | 0.00 | 0.00 | 0.00 | 74 | 1013.2 |
| 20260507040054 | 55 | 5 | 0.0 | 0.0 | 0.00 | 0.00 | 0.00 | 74 | 1013.2 |
| 20260507034559 | 55 | 5 | 0.0 | 0.0 | 0.00 | 0.00 | 0.00 | 75 | 1012.9 |
| 20260507033059 | 55 | 5 | 0.0 | 0.0 | 0.00 | 0.00 | 0.00 | 74 | 1012.9 |
| 20260507031603 | 56 | 5 | 0.0 | 0.0 | 0.00 | 0.00 | 0.00 | 73 | 1012.6 |
| 20260507030054 | 56 | 5 | 0.0 | 0.0 | 0.00 | 0.00 | 0.00 | 72 | 1012.5 |
| 20260507024548 | 56 | 5 | 0.0 | 0.0 | 0.00 | 0.00 | 0.00 | 71 | 1012.3 |
| 20260507023051 | 57 | 5 | 0.0 | 0.0 | 0.00 | 0.00 | 0.00 | 71 | 1011.9 |
| 20260507021544 | 57 | 5 | 0.0 | 0.0 | 0.00 | 0.00 | 0.00 | 70 | 1011.9 |
| 20260507020047 | 58 | 5 | 0.0 | 0.0 | 0.00 | 0.00 | 0.00 | 69 | 1011.8 |
| 20260507014549 | 59 | 5 | 0.0 | 0.0 | 0.00 | 0.00 | 0.00 | 67 | 1011.5 |
| 20260507013044 | 60 | 5 | 0.0 | 0.0 | 0.00 | 0.00 | 0.00 | 65 | 1011.3 |
| 20260507011541 | 61 | 5 | 0.0 | 1.7 | 0.00 | 0.00 | 0.00 | 63 | 1011.1 |
| 20260507010042 | 62 | 5 | 0.0 | 0.0 | 0.00 | 0.00 | 0.00 | 61 | 1010.8 |
| 20260507004537 | 64 | 5 | 0.0 | 2.6 | 0.00 | 0.00 | 0.00 | 59 | 1010.9 |
| 20260507003038 | 65 | 5 | 0.0 | 0.9 | 0.00 | 0.00 | 0.00 | 55 | 1010.7 |
| 20260507001540 | 66 | 5 | 0.0 | 0.9 | 0.00 | 0.00 | 0.00 | 54 | 1010.5 |
| 20260507000040 | 66 | 5 | 0.0 | 0.9 | 0.00 | 0.00 | 0.00 | 54 | 1010.4 |
| 20260506234535 | 65 | 5 | 0.0 | 0.9 | 0.00 | 0.00 | 0.00 | 56 | 1010.3 |
| 20260506233039 | 65 | 5 | 0.0 | 0.0 | 0.00 | 0.00 | 0.00 | 53 | 1010.3 |
| 20260506231534 | 66 | 5 | 0.0 | 0.9 | 0.00 | 0.00 | 0.00 | 53 | 1010.3 |
| 20260506230034 | 66 | 5 | 0.0 | 0.0 | 0.00 | 0.00 | 0.00 | 52 | 1010.1 |
| 20260506224534 | 66 | 5 | 0.0 | 1.7 | 0.00 | 0.00 | 0.00 | 53 | 1009.8 |
| 20260506223035 | 67 | 5 | 0.0 | 0.9 | 0.00 | 0.00 | 0.00 | 52 | 1009.7 |
| 20260506221532 | 67 | 5 | 0.0 | 1.7 | 0.00 | 0.00 | 0.00 | 52 | 1009.5 |
| 20260506220033 | 68 | 5 | 0.0 | 0.9 | 0.00 | 0.00 | 0.00 | 51 | 1009.4 |
| 20260506214531 | 68 | 5 | 0.0 | 1.7 | 0.00 | 0.00 | 0.00 | 49 | 1009.3 |
| 20260506213032 | 70 | 5 | 0.0 | 0.0 | 0.00 | 0.00 | 0.00 | 47 | 1009.3 |
| 20260506211533 | 71 | 5 | 0.0 | 0.0 | 0.00 | 0.00 | 0.00 | 46 | 1009.2 |
| 20260506210031 | 71 | 5 | 0.0 | 0.0 | 0.00 | 0.00 | 0.00 | 47 | 1009.4 |
| 20260506204526 | 70 | 5 | 0.0 | 0.0 | 0.00 | 0.00 | 0.00 | 49 | 1009.5 |
| 20260506203024 | 70 | 5 | 0.0 | 0.0 | 0.00 | 0.00 | 0.00 | 48 | 1009.5 |
| 20260506201522 | 69 | 5 | 0.0 | 0.0 | 0.00 | 0.00 | 0.00 | 50 | 1009.7 |
| 20260506200020 | 68 | 5 | 0.0 | 0.0 | 0.00 | 0.00 | 0.00 | 51 | 1009.9 |
| 20260506194519 | 68 | 5 | 0.0 | 0.0 | 0.00 | 0.00 | 0.00 | 52 | 1010.0 |
| 20260506193018 | 68 | 5 | 0.0 | 0.0 | 0.00 | 0.00 | 0.00 | 53 | 1010.1 |
| 20260506191514 | 66 | 5 | 0.0 | 0.0 | 0.00 | 0.00 | 0.00 | 55 | 1010.2 |
| 20260506190011 | 64 | 5 | 0.0 | 0.0 | 0.00 | 0.00 | 0.00 | 59 | 1010.5 |
| 20260506184508 | 64 | 5 | 0.0 | 0.9 | 0.00 | 0.00 | 0.00 | 60 | 1010.7 |
| 20260506183005 | 62 | 5 | 0.0 | 0.9 | 0.00 | 0.00 | 0.00 | 61 | 1010.9 |
| 20260506181503 | 61 | 5 | 0.0 | 0.9 | 0.00 | 0.00 | 0.00 | 63 | 1011.0 |
| 20260506180002 | 61 | 5 | 0.0 | 1.7 | 0.00 | 0.00 | 0.00 | 65 | 1011.0 |
| 20260506174602 | 60 | 5 | 0.0 | 1.7 | 0.00 | 0.00 | 0.00 | 66 | 1011.1 |
| 20260506173106 | 60 | 5 | 0.0 | 5.2 | 0.00 | 0.00 | 0.00 | 67 | 1011.1 |
| 20260506171603 | 59 | 5 | 0.0 | 1.7 | 0.00 | 0.00 | 0.00 | 68 | 1011.0 |
| 20260506170107 | 58 | 5 | 0.0 | 2.6 | 0.00 | 0.00 | 0.00 | 71 | 1010.9 |
| 20260506164606 | 56 | 5 | 0.0 | 2.6 | 0.00 | 0.00 | 0.00 | 73 | 1011.0 |
| 20260506163112 | 54 | 5 | 0.0 | 3.5 | 0.00 | 0.00 | 0.00 | 77 | 1011.0 |
| 20260506161601 | 52 | 5 | 0.0 | 1.7 | 0.00 | 0.00 | 0.00 | 79 | 1010.7 |
| 20260506160053 | 51 | 360 | 0.0 | 8.7 | 0.00 | 0.00 | 0.00 | 81 | 1010.6 |
| 20260506154608 | 51 | 5 | 0.0 | 4.3 | 0.00 | 0.00 | 0.00 | 81 | 1010.5 |
| 20260506153058 | 51 | 5 | 0.0 | 5.2 | 0.00 | 0.00 | 0.00 | 81 | 1010.4 |
| 20260506151548 | 51 | 5 | 0.0 | 4.3 | 0.00 | 0.00 | 0.00 | 82 | 1010.0 |
| 20260506150047 | 50 | 5 | 0.0 | 7.0 | 0.00 | 0.00 | 0.00 | 82 | 1010.0 |
| 20260506144546 | 50 | 5 | 0.0 | 7.0 | 0.00 | 0.00 | 0.00 | 83 | 1010.1 |
| 20260506143100 | 50 | 5 | 0.0 | 3.5 | 0.00 | 0.00 | 0.00 | 82 | 1010.3 |
| 20260506141544 | 50 | 5 | 0.0 | 2.6 | 0.00 | 0.00 | 0.00 | 83 | 1010.3 |
| 20260506140044 | 50 | 5 | 0.0 | 4.3 | 0.00 | 0.00 | 0.00 | 82 | 1009.9 |
| 20260506134542 | 50 | 5 | 0.0 | 0.9 | 0.00 | 0.00 | 0.00 | 82 | 1010.1 |
| 20260506133041 | 50 | 5 | 0.0 | 5.2 | 0.00 | 0.00 | 0.00 | 82 | 1009.7 |
| 20260506131538 | 50 | 5 | 0.0 | 3.5 | 0.00 | 0.00 | 0.00 | 82 | 1009.6 |
| 20260506130037 | 50 | 5 | 0.0 | 4.3 | 0.00 | 0.00 | 0.00 | 82 | 1009.3 |
| 20260506124535 | 50 | 5 | 0.0 | 0.9 | 0.00 | 0.00 | 0.00 | 82 | 1009.0 |
| 20260506123036 | 50 | 5 | 0.0 | 0.9 | 0.00 | 0.00 | 0.00 | 83 | 1008.9 |
| 20260506121538 | 50 | 5 | 0.0 | 0.9 | 0.00 | 0.00 | 0.00 | 83 | 1008.8 |
| 20260506120029 | 50 | 5 | 0.0 | 3.5 | 0.00 | 0.00 | 0.00 | 83 | 1008.0 |
| 20260506114533 | 50 | 5 | 0.0 | 1.7 | 0.00 | 0.00 | 0.00 | 83 | 1007.4 |
| 20260506113025 | 50 | 5 | 0.0 | 5.2 | 0.00 | 0.00 | 0.00 | 83 | 1007.1 |
| 20260506111524 | 50 | 5 | 0.0 | 2.6 | 0.00 | 0.00 | 0.00 | 83 | 1007.2 |
| 20260506110023 | 50 | 5 | 0.0 | 0.9 | 0.00 | 0.00 | 0.00 | 83 | 1007.0 |
| 20260506104520 | 50 | 5 | 0.0 | 0.0 | 0.00 | 0.00 | 0.00 | 84 | 1006.9 |
| 20260506103019 | 50 | 5 | 0.0 | 1.7 | 0.00 | 0.00 | 0.00 | 84 | 1006.7 |
| 20260506101518 | 50 | 5 | 0.0 | 1.7 | 0.00 | 0.00 | 0.00 | 84 | 1006.8 |
| 20260506100016 | 50 | 5 | 0.0 | 0.9 | 0.00 | 0.00 | 0.00 | 84 | 1006.6 |
| 20260506094513 | 50 | 5 | 0.0 | 0.0 | 0.00 | 0.00 | 0.00 | 83 | 1006.2 |
| 20260506093011 | 50 | 5 | 0.0 | 0.0 | 0.00 | 0.00 | 0.00 | 83 | 1005.9 |
| 20260506091509 | 51 | 5 | 0.0 | 0.0 | 0.00 | 0.00 | 0.00 | 83 | 1005.8 |
| 20260506090008 | 51 | 5 | 0.0 | 0.0 | 0.00 | 0.00 | 0.00 | 83 | 1006.0 |
| 20260506084505 | 51 | 5 | 0.0 | 0.0 | 0.00 | 0.00 | 0.00 | 82 | 1005.9 |